Nashua, NH

5:18 AM EDT on October 15, 2019 (GMT -0400)
Boire

Weather History for KASH - August, 2019

Change the Weather History Date:

Wednesday, August 14, 2019

  Actual Average Record
Temperature  
Mean Temperature 72 °F -  
Max Temperature 81 °F 81 °F 98 °F (2002)
Min Temperature 62 °F 57 °F 41 °F (1964)
Cooling Degree Days 7    
Growing Degree Days 22 (Base 50)    
Moisture  
Dew Point 61 °F    
Average Humidity 74    
Maximum Humidity 100    
Minimum Humidity 52    
Precipitation  
Precipitation 0.00 in - - ()
Sea Level Pressure  
Sea Level Pressure 29.89 in    
Wind  
Wind Speed 5 mph (North)    
Max Wind Speed 8 mph    
Max Gust Speed -    
Visibility 10 miles    
Events      
Averages and records for this station are not official NWS values.
T = Trace of Precipitation, MM = Missing Value Source: NWS Daily Summary

Daily Weather History Graph

Daily Weather History Graph

Search for Another Location

Airport or City:

Astronomy

Aug. 14, 2019 Rise Set
Actual Time 5:51 AM EDT 7:49 PM EDT
Civil Twilight 5:20 AM EDT 8:20 PM EDT
Nautical Twilight 4:42 AM EDT 8:57 PM EDT
Astronomical Twilight 4:01 AM EDT 9:38 PM EDT
Moon 7:43 PM EDT (8/14) 4:43 AM EDT (8/14)
Length of Visible Light 14h 59m
Length of Day
13h 58m
Waxing Gibbous, 99% of the Moon is Illuminated
Aug 14
Waxing Gibbous
Aug 15
Full
Aug 23
Last Quarter
Aug 30
New
Sep 5
First Quarter

Hourly Weather History & Observations

Time (EDT) Temp. Heat Index Dew Point Humidity Pressure Visibility Wind Dir Wind Speed Gust Speed Precip Events Conditions
12:56 AM 69.1 °F - 69.1 °F 100% 29.80 in 10.0 mi WNW 5.8 mph - N/A   Clear
1:56 AM 70.0 °F - 68.0 °F 93% 29.80 in 10.0 mi NW 4.6 mph - N/A   Clear
2:56 AM 68.0 °F - 66.9 °F 96% 29.80 in 10.0 mi NW 6.9 mph - N/A   Clear
3:56 AM 68.0 °F - 66.9 °F 96% 29.81 in 10.0 mi NNW 4.6 mph - N/A   Mostly Cloudy
4:56 AM 68.0 °F - 64.9 °F 90% 29.84 in 10.0 mi North 4.6 mph - N/A   Mostly Cloudy
5:05 AM 66.2 °F - 64.4 °F 94% 29.83 in 10.0 mi North 6.9 mph - N/A   Scattered Clouds
5:43 AM 66.2 °F - 60.8 °F 83% 29.84 in 10.0 mi North 4.6 mph - N/A   Mostly Cloudy
5:56 AM 66.9 °F - 60.1 °F 79% 29.86 in 10.0 mi North 3.5 mph - N/A   Overcast
6:56 AM 66.0 °F - 60.1 °F 81% 29.88 in 10.0 mi NW 4.6 mph - N/A   Partly Cloudy
7:56 AM 68.0 °F - 57.9 °F 70% 29.89 in 10.0 mi NNW 3.5 mph - N/A   Partly Cloudy
8:56 AM 69.1 °F - 57.0 °F 65% 29.90 in 10.0 mi North 4.6 mph - N/A   Clear
9:56 AM 70.0 °F - 57.9 °F 65% 29.91 in 10.0 mi Variable 4.6 mph - N/A   Overcast
10:56 AM 73.0 °F - 59.0 °F 61% 29.90 in 10.0 mi NE 5.8 mph - N/A   Mostly Cloudy
11:56 AM 73.0 °F - 57.9 °F 59% 29.90 in 10.0 mi North 8.1 mph - N/A   Clear
12:56 PM 75.9 °F - 59.0 °F 56% 29.88 in 10.0 mi NNE 6.9 mph - N/A   Clear
1:56 PM 78.1 °F - 59.0 °F 52% 29.88 in 10.0 mi NNE 4.6 mph - N/A   Clear
2:56 PM 79.0 °F - 60.1 °F 52% 29.89 in 10.0 mi NE 5.8 mph - N/A   Scattered Clouds
3:56 PM 80.1 °F 81.1 °F 61.0 °F 52% 29.90 in 10.0 mi Variable 4.6 mph - N/A   Scattered Clouds
4:56 PM 80.1 °F 81.5 °F 63.0 °F 56% 29.90 in 10.0 mi SE 4.6 mph - N/A   Scattered Clouds
5:56 PM 78.1 °F - 62.1 °F 58% 29.90 in 10.0 mi SE 6.9 mph - N/A   Scattered Clouds
6:56 PM 77.0 °F - 59.0 °F 54% 29.92 in 10.0 mi SE 8.1 mph - N/A   Clear
7:56 PM 73.0 °F - 57.9 °F 59% 29.93 in 10.0 mi SE 5.8 mph - N/A   Clear
8:56 PM 68.0 °F - 59.0 °F 73% 29.94 in 10.0 mi Calm Calm - N/A   Clear
9:56 PM 64.0 °F - 61.0 °F 90% 29.96 in 10.0 mi WNW 3.5 mph - N/A   Clear
10:56 PM 64.0 °F - 60.1 °F 87% 29.97 in 10.0 mi Calm Calm - N/A   Clear
11:56 PM 62.1 °F - 60.1 °F 93% 29.98 in 10.0 mi Calm Calm - N/A   Clear